www.pogodaiklimat.ru

Погода и климат >> Архив погоды >> Ирак >> Бадра


ПОГОДА в Бадре

  • Прогноз погоды в Бадре
  • Монитор погоды в Бадре

АРХИВ ПОГОДЫ в Бадре

Время (UTC), дата Ветер
(напр.,м/с)
 
Видим.   Явления Облачность Т
(С)
Тd
(С)
f
(%)
Тe
(С)
Тes
(С)
Комфортность P
(гПа)
Po
(гПа)
Тmin
(С)
Tmax
(С)
R
(мм)
R24
(мм)
S
(см)
06 18.08 СЗ 2 10 км ясно +34.6 +14.9 31 +36 +47 душно 1001.1 994.0 +26.4
09 18.08 СЗ 2 10 км ясно +42.1 +12.4 17 +41 +61 опасность
перегрева
999.9 993.0
15 18.08 СЗ 3 10 км ясно +42.1 +12.6 18 +42 +42 опасность
перегрева
999.9 993.0
18 18.08 С 2 10 км ясно +36.4 +14.0 26 +37 +37 очень
жарко
1001.0 994.0 +44.2
06 19.08 штиль 0 6000 м пыль ясно +37.4 +16.6 29 +40 +54 опасность
солнечного
удара
1004.0 997.0 +27.7
09 19.08 С 2 10 км ясно +44.4 +12.3 15 +44 +63 опасность
перегрева
993.9 987.1
12 19.08 С 1 10 км ясно +46.0 +12.1 14 +45 +57 опасность
перегрева
1001.8 995.0
15 19.08 С 1 10 км ясно +43.6 +12.4 16 +43 +43 опасность
перегрева
1002.9 996.0
18 19.08 С 2 10 км ясно +36.8 +11.6 22 +36 +36 очень
жарко
1004.1 997.0 +46.4
06 20.08 СЗ 1 10 км ясно +35.8 +12.8 25 +36 +49 очень
жарко
1005.1 998.0 +27.8
09 20.08 С 3 10 км ясно +45.0 +9.7 13 +44 +60 опасность
перегрева
1003.8 996.9
12 20.08 СЗ 4 10 км 1/1 900 м
[Cu hum]
+47.2 +12.2 13 +47 +53 опасность
перегрева
1002.8 996.0
15 20.08 СЗ 2 10 км ясно +44.6 +8.5 12 +43 +43 опасность
перегрева
1002.9 996.0
18 20.08 СЗ 3 10 км ясно +37.4 +9.1 18 +36 +36 очень
жарко
1004.0 997.0 +47.5
06 21.08 СЗ 2 10 км ясно +37.2 +8.1 17 +35 +46 очень
жарко
1004.0 996.9 +30.0
09 21.08 СЗ 3 10 км ясно +46.2 +6.6 10 +44 +60 опасность
перегрева
1002.8 996.0
15 21.08 СЗ 3 10 км ясно +44.7 +8.7 12 +43 +43 опасность
перегрева
1000.9 994.0
18 21.08 С 2 10 км ясно +36.2 +10.3 21 +35 +35 очень
жарко
1003.1 996.0 +47.6
06 22.08 С 2 10 км ясно +35.4 +10.5 22 +34 +45 очень
жарко
1002.0 994.9 +29.6
09 22.08 С 4 10 км ясно +43.6 +10.1 14 +42 +55 опасность
перегрева
1001.9 995.0
15 22.08 С 2 10 км ясно +42.6 +8.6 13 +41 +41 опасность
перегрева
1000.9 994.0
06 23.08 С 1 10 км ясно +35.2 +8.4 19 +33 +46 жарко 1003.1 996.0 +27.4
09 23.08 С 3 10 км ясно +44.8 +6.1 10 +42 +58 опасность
перегрева
1002.8 995.9
12 23.08 С 6 7000 м пыль ясно +46.2 +1.5 7 +43 +47 опасность
перегрева
1001.8 995.0
15 23.08 С 3 10 км ясно +44.0 +6.3 10 +41 +41 опасность
перегрева
1000.9 994.0
18 23.08 С 4 10 км ясно +37.4 +5.9 14 +35 +35 очень
жарко
1003.0 996.0 +46.6
06 24.08 ЮВ 1 10 км ясно +38.2 +17.2 29 +41 +53 опасность
перегрева
1006.0 999.0 +28.0
09 24.08 ЮВ 1 10 км ясно +45.0 +16.0 19 +47 +69 опасность
перегрева
1003.8 996.9
12 24.08 СЗ 4 10 км ясно +47.4 +6.3 9 +45 +52 опасность
перегрева
1001.8 995.0
15 24.08 СЗ 3 10 км ясно +45.0 +9.0 12 +43 +43 опасность
перегрева
1000.8 993.9
18 24.08 СЗ 3 10 км ясно +38.3 +8.8 17 +37 +37 очень
жарко
1003.0 996.0 +48.0

 

Местоположение метеостанции Бадра (Ирак): широта 33.10 долгота 45.95 высота над уровнем моря 64 м.

В архиве по умолчанию представлена погода в Бадре за последнюю неделю. Архивные данные за месяц целиком и за предыдущие месяцы, начиная с января 2011 года, Вы можете получить, выбрав интересующий диапазон дат из раскрывающегося списка и нажав кнопку "Ввод!".


*Определитесь, кто Вы:
робот инопланетянин человек

Внимание! Время в таблицах - всемирное. Для получения местного времени необходимо прибавить поправку, которая равна 3 ч.

Смотрите также архив погоды в соседних городах и на ближайших метеорологических станциях:

Погода в Убайда Бин Аль Джарра (Ирак) (70 км)
Погода в Иламе (Иран) (74 км)
Погода в Эль-Азизии (Ирак) (84 км)
Погода в Али Аль-Гарби (Ирак) (100 км)
Погода в Кут-аль-Хай (Ирак) (104 км)
Погода в Айн Аль-Тамаре (Ирак) (125 км)
Погода в Ханакине (Ирак) (142 км)
Погода в Рифаи (Ирак) (154 км)
Погода в Дивании (Ирак) (154 км)
Погода в Эль-Халисе (Ирак) (155 км)

Пояснения к столбцам:

Ветер - указаны скорость ветра в м/с - средняя за 10 мин, порывы в срок и между сроками (в фигурных скобках) и направление, откуда дует ветер: С - северный, СВ - северо-восточный, В - восточный, ЮВ - юго-восточный, Ю - южный, ЮЗ - юго-западный, З - западный, СЗ - северо-западный.
Видимость - горизонтальная дальность видимости в метрах или километрах. При видимости от 1 до 10 км при отсутствии осадков обычно наблюдается дымка, при ухудшении видимости до 1 км и менее - туман. В сухую погоду видимость может ухудшаться дымом, пылью или мглою.
Явления - указаны атмосферные явления, наблюдавшиеся в срок или в последний час перед сроком; фигурными скобками обозначены явления, наблюдавшиеся между сроками (за 1-3 часа до срока); квадратными скобками обозначены град или гололедные отложения с указанием их диаметра в мм.
Облачность - указаны через наклонную черту общая и нижняя облачность в баллах и высота нижней границы облаков в метрах; квадратными скобками обозначены формы облаков: Ci - перистые, Cs - перисто-слоистые, Cc - перисто-кучевые, Ac - высококучевые, As - высокослоистые, Sc - слоисто-кучевые, Ns - слоисто-дождевые, Cu - кучевые, Cb - кучево-дождевые. Подробнее классификацию облаков см. в Атласе облаков (PDF).
T - Температура воздуха - температура, измеренная на высоте 2 м над землей.
Td - Температура точки росы - температура, при понижении до которой содержащийся в воздухе водяной пар достигнет насыщения.
f - Относительная влажность воздуха - влажноcть воздуха, измеренная на высоте 2 м над землей.
Te - Эффективная температура - температура, которую ощущает одетый по сезону человек в тени. Характеристика душности погоды. При расчете учитывается влияние влажности воздуха и скорости ветра на теплоощущения человека.
Tes - Эффективная температура на солнце - температура, которую ощущает человек, с поправкой на солнечный нагрев. Характеристика знойности погоды. Зависит от высоты солнца над горизонтом, облачности и скорости ветра. Ночью, в пасмурную погоду, а также при ветре 12 м/с и более поправка равна нулю.
P - Атмосферное давление - приведенное к уровню моря атмосферное давление.
Po - Атмосферное давление - измеренное на уровне метеостанции атмосферное давление.
Tmin - Минимальная температура - минимум температуры воздуха на высоте 2 м над землей.
Tmax - Максимальная температура - максимум температуры воздуха на высоте 2 м над землей.
R - Количество осадков - Количество выпавших осадков за период времени, мм. При наведении курсора мыши на число - период времени, за который выпало указанное количество осадков.
R24 - Количество осадков - Количество выпавших осадков за 24 часа, мм.
S - Снежный покров - Высота снежного покрова, см. При наведении курсора мыши на число - состояние снежного покрова и степень покрытия местности в баллах.